Location: Newark
(41.6500°N, 71.4833°W)
Time: 18:55:48
(UTC+00:00)

Transit 2A Rocket - Pass Details

Date: 03 February 2020
Orbit: 592 x 911 km, 66.7° (Epoch: 16 February)

Event Time Altitude Azimuth Distance (km) Brightness Sun altitude
Rises 16:31:44 0° 330° (NNW) 3,058 7.6 31.5°
Reaches altitude 10° 16:33:58 10° 331° (NNW) 2,185 7.0 31.5°
Maximum altitude 16:38:58 82° 60° (ENE) 768 5.5 31.6°
Drops below altitude 10° 16:44:27 10° 148° (SSE) 2,387 8.7 31.7°
Sets 16:47:00 0° 149° (SSE) 3,363 9.2 31.7°
